Regional Weather Roundup
Issued by NWS Cleveland, OH

Home | Current Version | Previous Version | Graphics & Text | Print | Product List | Glossary On
Versions: 1 2 3 4 5 6 7 8 9 10 11 12 13 14 15 16 17 18 19 20 21 22 23 24 25 26 27 28 29 30 31 32 33 34 35 36 37 38 39 40 41 42 43 44 45 46 47 48 49 50
943
ASUS41 KCLE 180200
RWRCLE
OHIO REGIONAL WEATHER ROUNDUP
NATIONAL WEATHER SERVICE WILMINGTON, OH
900 PM EST SAT FEB 17 2018

NOTE: "FAIR" INDICATES FEW OR NO CLOUDS BELOW 12,000 FEET WITH NO
SIGNIFICANT WEATHER AND/OR OBSTRUCTIONS TO VISIBILITY.

OHZ001>008-015>018-024>027-034-035-043-044-180300-
   NORTHWEST OHIO

CITY           SKY/WX    TMP DP  RH WIND       PRES   REMARKS
DEFIANCE       LGT SNOW  32  29  88 SW7       30.00S VSB 3/4 WCI  26
FINDLAY        LGT SNOW  33  30  88 SW8       29.99S VSB 1   WCI  26
TOLEDO EXPRESS LGT SNOW  32  31  96 S5        29.98S FOG     WCI  27
TOLEDO EXEC    CLOUDY    33  30  88 SW7       30.01R FOG     WCI  27
LIMA           LGT SNOW  33  33 100 SW8       29.99S VSB 1   WCI  26
$$

OHZ009>014-019>023-028>033-038-089-180300-
   NORTHEAST OHIO

CITY           SKY/WX    TMP DP  RH WIND       PRES   REMARKS
CLE-HOPKINS    FLURRIES  33  28  81 S9        30.00F WCI  25
CLE-LAKEFRONT  CLOUDY    33  27  78 S7        29.99F WCI  27
CUY CO. ARPT   CLOUDY    32  28  86 S7        30.00F WCI  26
LORAIN-ELYRIA  CLOUDY    31  26  82 VRB7      30.00F HAZE    WCI  24
ASHTABULA      LGT SNOW  29  26  89 S3        30.00F FOG
AKRON-CANTON   LGT SNOW  31  28  89 SW6       29.99F FOG     WCI  25
WOOSTER        LGT SNOW  30  29  96 SW6       30.00S FOG     WCI  24
MANSFIELD      LGT SNOW  31  30  96 S7        29.98F FOG     WCI  24
YOUNGSTOWN     LGT SNOW  30  28  92 S3        29.99S VSB 1
$$

OHZ042-051>053-060>062-070>072-077>081-180300-
  SOUTHWEST OHIO

CITY           SKY/WX    TMP DP  RH WIND       PRES   REMARKS
CINC-COVINGTON SNOW      34  34 100 SW10      30.06S VSB 1/2 WCI  26
CINC-LUNKEN    LGT RAIN  35  35 100 S7        30.09S FOG     WCI  29
HAMILTON       LGT RAIN  36  35  96 SW6       30.08R FOG
DAYTON         NOT AVBL
WRIGHT-PAT AFB FLURRIES  33  33 100 SW8       30.03F WCI  27
DAYTON GENERAL LGT SNOW  34  32  92 SW7       30.03S FOG     WCI  28
WILMINGTON     CLOUDY    33  33 100 SW10      30.04S FOG     WCI  25
$$

OHZ036-037-039>041-045>050-054>059-063>069-073>076-082>088-180300-
  CENTRAL AND SOUTHEAST OHIO

CITY           SKY/WX    TMP DP  RH WIND       PRES   REMARKS
COLUMBUS       LGT SNOW  33  33 100 S5        30.03F FOG     WCI  29
OSU AIRPORT    CLOUDY    33  33 100 S6        30.02F FOG     WCI  28
BOLTON FIELD   NOT AVBL
RICKENBACK AFB NOT AVBL
NEWARK         LGT SNOW  33  31  92 SW5       30.02S FOG     WCI  29
MARION         CLOUDY    32  30  92 S10       30.00F FOG     WCI  24
LANCASTER      LGT SNOW  33  32  96 SW5       30.04S FOG     WCI  29
ZANESVILLE     LGT SNOW  33  31  92 CALM      30.03S FOG
NEW PHILLY     CLOUDY    33  31  92 CALM      30.03S FOG
$$




USA.gov is the U.S. government's official web portal to all federal, state and local government web resources and services.